OK1VCF-8 Weather Reports


time (UTC)temp
C
wind
direction
speed
KPH
gust
KPH
rain 1hr
cm
rain 24hr
cm
rain mn
cm
humidity
%
barometer
mb
20260906132643 20 0 0.0 0.0 0.00 0.00 0.00 44 1028.1
20260906131924 20 0 0.0 0.0 0.00 0.00 0.00 44 1028.0
20260906131203 20 0 0.0 0.0 0.00 0.00 0.00 44 1028.2
20260906130436 20 0 0.0 0.0 0.00 0.00 0.00 44 1028.3
20260906125711 19 0 0.0 0.0 0.00 0.00 0.00 44 1028.2
20260906124947 19 0 0.0 0.0 0.00 0.00 0.00 44 1028.2
20260906124218 19 0 0.0 0.0 0.00 0.00 0.00 44 1028.3
20260906123442 19 0 0.0 0.0 0.00 0.00 0.00 44 1028.2
20260906122708 19 0 0.0 0.0 0.00 0.00 0.00 44 1028.4
20260906121927 19 0 0.0 0.0 0.00 0.00 0.00 44 1028.5
20260906121144 20 0 0.0 0.0 0.00 0.00 0.00 45 1028.5
20260906120359 19 0 0.0 0.0 0.00 0.00 0.00 46 1028.6
20260906115618 18 0 0.0 0.0 0.00 0.00 0.00 46 1028.6
20260906114840 19 0 0.0 0.0 0.00 0.00 0.00 46 1028.6
20260906114101 18 0 0.0 0.0 0.00 0.00 0.00 46 1028.6
20260906113043 18 0 0.0 0.0 0.00 0.00 0.00 47 1028.8
20260906112319 19 0 0.0 0.0 0.00 0.00 0.00 46 1028.8
20260906111556 18 0 0.0 0.0 0.00 0.00 0.00 48 1028.8
20260906110835 17 0 0.0 0.0 0.00 0.00 0.00 48 1028.8
20260906110112 18 0 0.0 0.0 0.00 0.00 0.00 48 1028.8
20260906105351 18 0 0.0 0.0 0.00 0.00 0.00 48 1028.8
20260906104629 18 0 0.0 0.0 0.00 0.00 0.00 48 1029.2
20260906103906 18 0 0.0 0.0 0.00 0.00 0.00 45 1029.1
20260906103145 18 0 0.0 0.0 0.00 0.00 0.00 46 1029.2
20260906102424 18 0 0.0 0.0 0.00 0.00 0.00 48 1029.3
20260906101705 17 0 0.0 0.0 0.00 0.00 0.00 48 1029.3
20260906100945 18 0 0.0 0.0 0.00 0.00 0.00 48 1029.4
20260906100225 18 0 0.0 0.0 0.00 0.00 0.00 48 1029.3
20260906095504 17 0 0.0 0.0 0.00 0.00 0.00 48 1029.2
20260906094744 17 0 0.0 0.0 0.00 0.00 0.00 50 1029.3
20260906093739 18 0 0.0 0.0 0.00 0.00 0.00 49 1029.3
20260906093020 18 0 0.0 0.0 0.00 0.00 0.00 49 1029.3
20260906092301 17 0 0.0 0.0 0.00 0.00 0.00 51 1029.3
20260906091541 17 0 0.0 0.0 0.00 0.00 0.00 52 1029.4
20260906090823 17 0 0.0 0.0 0.00 0.00 0.00 50 1029.2
20260906090106 18 0 0.0 0.0 0.00 0.00 0.00 49 1029.4
20260906085347 17 0 0.0 0.0 0.00 0.00 0.00 50 1029.3
20260906084630 17 0 0.0 0.0 0.00 0.00 0.00 54 1029.4
20260906083913 16 0 0.0 0.0 0.00 0.00 0.00 55 1029.4
20260906083156 17 0 0.0 0.0 0.00 0.00 0.00 54 1029.4
20260906082438 16 0 0.0 0.0 0.00 0.00 0.00 56 1029.3
20260906081719 16 0 0.0 0.0 0.00 0.00 0.00 56 1029.2
20260906081002 16 0 0.0 0.0 0.00 0.00 0.00 56 1029.1
20260906080243 16 0 0.0 0.0 0.00 0.00 0.00 58 1029.0
20260906075523 16 0 0.0 0.0 0.00 0.00 0.00 60 1029.0
20260906074520 16 0 0.0 0.0 0.00 0.00 0.00 61 1028.8
20260906073801 16 0 0.0 0.0 0.00 0.00 0.00 62 1028.6
20260906073041 16 0 0.0 0.0 0.00 0.00 0.00 62 1028.6
20260906072323 15 0 0.0 0.0 0.00 0.00 0.00 63 1028.7
20260906071556 16 0 0.0 0.0 0.00 0.00 0.00 62 1028.6
20260906070833 16 0 0.0 0.0 0.00 0.00 0.00 64 1028.5
20260906070107 15 0 0.0 0.0 0.00 0.00 0.00 64 1028.3
20260906065340 15 0 0.0 0.0 0.00 0.00 0.00 65 1028.2
20260906064615 15 0 0.0 0.0 0.00 0.00 0.00 68 1028.2
20260906063850 15 0 0.0 0.0 0.00 0.00 0.00 68 1028.2
20260906063127 15 0 0.0 0.0 0.00 0.00 0.00 68 1028.2
20260906062359 14 0 0.0 0.0 0.00 0.00 0.00 70 1028.2
20260906061633 14 0 0.0 0.0 0.00 0.00 0.00 72 1028.1
20260906060911 13 0 0.0 0.0 0.00 0.00 0.00 73 1028.0
20260906060147 13 0 0.0 0.0 0.00 0.00 0.00 74 1027.9
20260906055135 13 0 0.0 0.0 0.00 0.00 0.00 75 1027.8
20260906054416 13 0 0.0 0.0 0.00 0.00 0.00 76 1027.7
20260906053658 12 0 0.0 0.0 0.00 0.00 0.00 78 1027.6
20260906052938 12 0 0.0 0.0 0.00 0.00 0.00 78 1027.6
20260906052221 12 0 0.0 0.0 0.00 0.00 0.00 78 1027.4
20260906051503 12 0 0.0 0.0 0.00 0.00 0.00 78 1027.6
20260906050746 12 0 0.0 0.0 0.00 0.00 0.00 78 1027.4
20260906050028 12 0 0.0 0.0 0.00 0.00 0.00 80 1027.3
20260906045310 11 0 0.0 0.0 0.00 0.00 0.00 80 1027.2
20260906044554 11 0 0.0 0.0 0.00 0.00 0.00 80 1027.2
20260906043838 11 0 0.0 0.0 0.00 0.00 0.00 80 1027.2
20260906043121 12 0 0.0 0.0 0.00 0.00 0.00 80 1027.2
20260906042403 11 0 0.0 0.0 0.00 0.00 0.00 80 1027.2
20260906041645 12 0 0.0 0.0 0.00 0.00 0.00 76 1027.2
20260906040929 12 0 0.0 0.0 0.00 0.00 0.00 76 1027.0
20260906035926 13 0 0.0 0.0 0.00 0.00 0.00 74 1026.9
20260906035209 13 0 0.0 0.0 0.00 0.00 0.00 74 1026.8
20260906034450 13 0 0.0 0.0 0.00 0.00 0.00 75 1026.7
20260906033734 13 0 0.0 0.0 0.00 0.00 0.00 75 1026.8
20260906033017 12 0 0.0 0.0 0.00 0.00 0.00 78 1026.6
20260906032305 12 0 0.0 0.0 0.00 0.00 0.00 78 1026.6
20260906031544 12 0 0.0 0.0 0.00 0.00 0.00 79 1026.6
20260906030826 12 0 0.0 0.0 0.00 0.00 0.00 80 1026.6
20260906030110 12 0 0.0 0.0 0.00 0.00 0.00 79 1026.6
20260906025352 12 0 0.0 0.0 0.00 0.00 0.00 80 1026.5
20260906024635 12 0 0.0 0.0 0.00 0.00 0.00 78 1026.4
20260906023918 13 0 0.0 0.0 0.00 0.00 0.00 75 1026.3
20260906023202 13 0 0.0 0.0 0.00 0.00 0.00 72 1026.4
20260906022445 13 0 0.0 0.0 0.00 0.00 0.00 72 1026.3
20260906021729 13 0 0.0 0.0 0.00 0.00 0.00 72 1026.2
20260906020728 13 0 0.0 0.0 0.00 0.00 0.00 72 1026.2
20260906020011 13 0 0.0 0.0 0.00 0.00 0.00 72 1026.2
20260906015253 13 0 0.0 0.0 0.00 0.00 0.00 72 1026.0
20260906014535 14 0 0.0 0.0 0.00 0.00 0.00 72 1025.9
20260906013819 14 0 0.0 0.0 0.00 0.00 0.00 70 1025.9
20260906013101 14 0 0.0 0.0 0.00 0.00 0.00 70 1026.0
20260906012341 14 0 0.0 0.0 0.00 0.00 0.00 70 1026.0
20260906011621 14 0 0.0 0.0 0.00 0.00 0.00 70 1025.8
20260906010901 14 0 0.0 0.0 0.00 0.00 0.00 69 1026.0
20260906010137 14 0 0.0 0.0 0.00 0.00 0.00 69 1026.0
20260906005406 15 0 0.0 0.0 0.00 0.00 0.00 68 1026.0
20260906004637 15 0 0.0 0.0 0.00 0.00 0.00 66 1025.9
20260906003913 15 0 0.0 0.0 0.00 0.00 0.00 66 1025.9
20260906003150 15 0 0.0 0.0 0.00 0.00 0.00 67 1026.0
20260906002424 15 0 0.0 0.0 0.00 0.00 0.00 67 1025.9
20260906001415 14 0 0.0 0.0 0.00 0.00 0.00 70 1025.8
20260906000653 13 0 0.0 0.0 0.00 0.00 0.00 69 1025.8
20260905235928 14 0 0.0 0.0 0.00 0.00 0.00 68 1025.6
20260905235206 15 0 0.0 0.0 0.00 0.00 0.00 66 1025.5
20260905234438 15 0 0.0 0.0 0.00 0.00 0.00 67 1025.6
20260905233708 15 0 0.0 0.0 0.00 0.00 0.00 66 1025.4
20260905232940 15 0 0.0 0.0 0.00 0.00 0.00 65 1025.4
20260905232209 15 0 0.0 0.0 0.00 0.00 0.00 64 1025.4
20260905231449 15 0 0.0 0.0 0.00 0.00 0.00 65 1025.4
20260905230732 15 0 0.0 0.0 0.00 0.00 0.00 65 1025.2
20260905230015 15 0 0.0 0.0 0.00 0.00 0.00 64 1025.2
20260905225258 15 0 0.0 0.0 0.00 0.00 0.00 64 1025.2
20260905224541 15 0 0.0 0.0 0.00 0.00 0.00 64 1025.1
20260905223824 15 0 0.0 0.0 0.00 0.00 0.00 62 1025.0
20260905223108 15 0 0.0 0.0 0.00 0.00 0.00 62 1025.2
20260905222106 15 0 0.0 0.0 0.00 0.00 0.00 60 1025.0
20260905221349 16 0 0.0 0.0 0.00 0.00 0.00 59 1024.8
20260905220633 16 0 0.0 0.0 0.00 0.00 0.00 59 1025.1
20260905215915 16 0 0.0 0.0 0.00 0.00 0.00 58 1025.0
20260905215159 16 0 0.0 0.0 0.00 0.00 0.00 58 1024.9
20260905214442 16 0 0.0 0.0 0.00 0.00 0.00 59 1024.8
20260905213725 16 0 0.0 0.0 0.00 0.00 0.00 59 1024.8
20260905213008 16 0 0.0 0.0 0.00 0.00 0.00 57 1024.7
20260905212251 16 0 0.0 0.0 0.00 0.00 0.00 56 1024.6
20260905211533 16 0 0.0 0.0 0.00 0.00 0.00 56 1024.5
20260905210815 17 0 0.0 0.0 0.00 0.00 0.00 54 1024.5
20260905210057 16 0 0.0 0.0 0.00 0.00 0.00 54 1024.5
20260905205339 17 0 0.0 0.0 0.00 0.00 0.00 54 1024.4
20260905204620 16 0 0.0 0.0 0.00 0.00 0.00 54 1024.4
20260905203902 16 0 0.0 0.0 0.00 0.00 0.00 54 1024.4
20260905201433 16 0 0.0 0.0 0.00 0.00 0.00 56 1024.0
20260905200716 16 0 0.0 0.0 0.00 0.00 0.00 56 1024.0
20260905195956 16 0 0.0 0.0 0.00 0.00 0.00 59 1023.8
20260905195238 16 0 0.0 0.0 0.00 0.00 0.00 58 1023.8
20260905194521 16 0 0.0 0.0 0.00 0.00 0.00 58 1023.7
20260905193802 16 0 0.0 0.0 0.00 0.00 0.00 57 1023.4
20260905193043 16 0 0.0 0.0 0.00 0.00 0.00 56 1023.4
20260905192322 17 0 0.0 0.0 0.00 0.00 0.00 55 1023.4
20260905191603 17 0 0.0 0.0 0.00 0.00 0.00 54 1023.3
20260905190843 16 0 0.0 0.0 0.00 0.00 0.00 58 1023.1
20260905190125 17 0 0.0 0.0 0.00 0.00 0.00 56 1023.0
20260905185405 17 0 0.0 0.0 0.00 0.00 0.00 56 1023.1
20260905184647 17 0 0.0 0.0 0.00 0.00 0.00 54 1022.8
20260905183641 18 0 0.0 0.0 0.00 0.00 0.00 53 1022.8
20260905182922 17 0 0.0 0.0 0.00 0.00 0.00 53 1022.9
20260905182203 18 0 0.0 0.0 0.00 0.00 0.00 53 1022.8
20260905181443 18 0 0.0 0.0 0.00 0.00 0.00 52 1022.6
20260905180723 18 0 0.0 0.0 0.00 0.00 0.00 51 1022.5
20260905180003 18 0 0.0 0.0 0.00 0.00 0.00 50 1022.4
20260905175244 18 0 0.0 0.0 0.00 0.00 0.00 49 1022.2
20260905174527 19 0 0.0 0.0 0.00 0.00 0.00 48 1022.1
20260905173808 19 0 0.0 0.0 0.00 0.00 0.00 48 1021.9
20260905173049 20 0 0.0 0.0 0.00 0.00 0.00 47 1021.8
20260905172330 20 0 0.0 0.0 0.00 0.00 0.00 46 1021.8
20260905171611 20 0 0.0 0.0 0.00 0.00 0.00 46 1021.6
20260905170853 20 0 0.0 0.0 0.00 0.00 0.00 46 1021.6
20260905170135 21 0 0.0 0.0 0.00 0.00 0.00 45 1021.4
20260905165415 21 0 0.0 0.0 0.00 0.00 0.00 44 1021.3
20260905164412 21 0 0.0 0.0 0.00 0.00 0.00 44 1021.2
20260905163653 23 0 0.0 0.0 0.00 0.00 0.00 38 1021.0
20260905162934 24 0 0.0 0.0 0.00 0.00 0.00 37 1021.0
20260905162214 24 0 0.0 0.0 0.00 0.00 0.00 37 1020.9
20260905161454 26 0 0.0 0.0 0.00 0.00 0.00 35 1020.8
20260905160734 25 0 0.0 0.0 0.00 0.00 0.00 36 1020.6
20260905160014 25 0 0.0 0.0 0.00 0.00 0.00 36 1020.6
20260905155256 25 0 0.0 0.0 0.00 0.00 0.00 37 1020.6
20260905154536 23 0 0.0 0.0 0.00 0.00 0.00 40 1020.4
20260905153818 23 0 0.0 0.0 0.00 0.00 0.00 40 1020.4
20260905153059 25 0 0.0 0.0 0.00 0.00 0.00 36 1020.4
20260905152341 24 0 0.0 0.0 0.00 0.00 0.00 38 1020.4
20260905151621 25 0 0.0 0.0 0.00 0.00 0.00 36 1020.4
20260905150903 23 0 0.0 0.0 0.00 0.00 0.00 39 1020.2
20260905150143 23 0 0.0 0.0 0.00 0.00 0.00 40 1020.4
20260905145137 23 0 0.0 0.0 0.00 0.00 0.00 40 1020.1
20260905144418 23 0 0.0 0.0 0.00 0.00 0.00 40 1020.3
20260905143659 23 0 0.0 0.0 0.00 0.00 0.00 41 1020.2
20260905142939 23 0 0.0 0.0 0.00 0.00 0.00 40 1020.2
20260905142220 23 0 0.0 0.0 0.00 0.00 0.00 40 1020.2
20260905140033 23 0 0.0 0.0 0.00 0.00 0.00 41 1020.3
20260905133853 22 0 0.0 0.0 0.00 0.00 0.00 42 1020.3
20260905133132 22 0 0.0 0.0 0.00 0.00 0.00 43 1020.2